Time,TemperatureF,DewpointF,PressureIn,WindDirection,WindDirectionDegrees,WindSpeedMPH,WindSpeedGustMPH,Humidity,HourlyPrecipIn,Conditions,Clouds,dailyrainin,SolarRadiationWatts/m^2,SoftwareType,DateUTC
2013-05-22 00:07:00,49.6,45.0,29.84,WNW,282,0.0,3.0,84,0.00,,,0.00,0,weatherlink.com 1.10,2013-05-22 05:07:00,
2013-05-22 00:22:00,49.0,45.0,29.83,WNW,295,0.0,4.0,85,0.00,,,0.00,0,weatherlink.com 1.10,2013-05-22 05:22:00,
2013-05-22 00:37:00,48.4,44.0,29.83,NW,309,0.0,0.0,85,0.00,,,0.00,0,weatherlink.com 1.10,2013-05-22 05:37:00,
2013-05-22 00:52:00,47.8,44.0,29.83,NW,315,0.0,1.0,86,0.00,,,0.00,0,weatherlink.com 1.10,2013-05-22 05:52:00,
2013-05-22 01:07:00,47.8,44.0,29.83,WNW,288,6.0,8.0,86,0.00,,,0.00,0,weatherlink.com 1.10,2013-05-22 06:07:00,
2013-05-22 01:22:00,48.1,44.0,29.83,West,275,3.0,9.0,86,0.00,,,0.00,0,weatherlink.com 1.10,2013-05-22 06:22:00,
2013-05-22 01:37:00,48.3,44.0,29.84,West,260,3.0,9.0,85,0.00,,,0.00,0,weatherlink.com 1.10,2013-05-22 06:37:00,
2013-05-22 01:52:00,48.5,44.0,29.84,WSW,256,7.0,11.0,85,0.00,,,0.00,0,weatherlink.com 1.10,2013-05-22 06:52:00,
2013-05-22 02:07:00,48.4,44.0,29.84,West,277,5.0,10.0,84,0.00,,,0.00,0,weatherlink.com 1.10,2013-05-22 07:07:00,
2013-05-22 02:22:00,47.8,44.0,29.84,West,275,8.0,10.0,85,0.00,,,0.00,0,weatherlink.com 1.10,2013-05-22 07:22:00,
2013-05-22 02:37:00,46.9,43.0,29.84,West,273,0.0,7.0,86,0.00,,,0.00,0,weatherlink.com 1.10,2013-05-22 07:37:00,
2013-05-22 02:53:00,46.7,43.0,29.84,West,275,0.0,8.0,87,0.00,,,0.00,0,weatherlink.com 1.10,2013-05-22 07:53:00,
2013-05-22 03:08:00,46.4,43.0,29.84,West,260,0.0,2.0,87,0.00,,,0.00,0,weatherlink.com 1.10,2013-05-22 08:08:00,
2013-05-22 03:23:00,46.5,43.0,29.84,West,273,0.0,7.0,87,0.00,,,0.00,0,weatherlink.com 1.10,2013-05-22 08:23:00,
2013-05-22 03:38:00,46.2,43.0,29.85,West,259,3.0,9.0,88,0.00,,,0.00,0,weatherlink.com 1.10,2013-05-22 08:38:00,
2013-05-22 03:53:00,46.1,43.0,29.85,WNW,282,0.0,6.0,88,0.00,,,0.00,0,weatherlink.com 1.10,2013-05-22 08:53:00,
2013-05-22 04:08:00,45.6,42.0,29.86,WNW,302,0.0,6.0,88,0.00,,,0.00,0,weatherlink.com 1.10,2013-05-22 09:08:00,
2013-05-22 04:23:00,44.5,42.0,29.85,NW,307,0.0,0.0,90,0.00,,,0.00,0,weatherlink.com 1.10,2013-05-22 09:23:00,
2013-05-22 04:38:00,44.0,41.0,29.86,NW,308,0.0,0.0,90,0.00,,,0.00,0,weatherlink.com 1.10,2013-05-22 09:38:00,
2013-05-22 04:53:00,44.0,42.0,29.86,WNW,294,0.0,0.0,92,0.00,,,0.00,0,weatherlink.com 1.10,2013-05-22 09:53:00,
2013-05-22 05:08:00,44.5,42.0,29.86,WNW,294,0.0,0.0,91,0.00,,,0.00,0,weatherlink.com 1.10,2013-05-22 10:08:00,
2013-05-22 05:23:00,43.6,41.0,29.86,NW,305,0.0,0.0,91,0.00,,,0.00,0,weatherlink.com 1.10,2013-05-22 10:23:00,
2013-05-22 05:38:00,43.1,41.0,29.86,WNW,297,0.0,0.0,92,0.00,,,0.00,0,weatherlink.com 1.10,2013-05-22 10:38:00,
2013-05-22 05:53:00,42.3,40.0,29.87,WNW,294,0.0,0.0,92,0.00,,,0.00,0,weatherlink.com 1.10,2013-05-22 10:53:00,
2013-05-22 06:08:00,42.3,40.0,29.87,WNW,299,0.0,1.0,92,0.00,,,0.00,0,weatherlink.com 1.10,2013-05-22 11:08:00,
2013-05-22 06:23:00,42.4,41.0,29.87,NW,309,0.0,3.0,93,0.00,,,0.00,0,weatherlink.com 1.10,2013-05-22 11:23:00,
2013-05-22 06:38:00,42.5,41.0,29.87,WNW,288,0.0,1.0,93,0.00,,,0.00,12,weatherlink.com 1.10,2013-05-22 11:38:00,
2013-05-22 06:53:00,43.2,41.0,29.87,WNW,300,0.0,0.0,93,0.00,,,0.00,23,weatherlink.com 1.10,2013-05-22 11:53:00,
2013-05-22 07:08:00,44.6,43.0,29.87,NW,325,0.0,6.0,93,0.00,,,0.00,60,weatherlink.com 1.10,2013-05-22 12:08:00,
2013-05-22 07:23:00,45.7,44.0,29.87,NW,317,0.0,6.0,92,0.00,,,0.00,98,weatherlink.com 1.10,2013-05-22 12:23:00,
2013-05-22 07:38:00,47.1,45.0,29.88,WNW,301,0.0,7.0,91,0.00,,,0.00,142,weatherlink.com 1.10,2013-05-22 12:38:00,
2013-05-22 07:53:00,48.5,45.0,29.88,NW,310,0.0,6.0,88,0.00,,,0.00,197,weatherlink.com 1.10,2013-05-22 12:53:00,
2013-05-22 08:08:00,49.7,45.0,29.89,NNW,338,0.0,11.0,85,0.00,,,0.00,241,weatherlink.com 1.10,2013-05-22 13:08:00,
2013-05-22 08:25:00,51.2,46.0,29.89,WNW,291,0.0,7.0,83,0.00,,,0.00,295,weatherlink.com 1.10,2013-05-22 13:25:00,
2013-05-22 08:39:00,52.8,47.0,29.89,NNW,345,1.0,11.0,80,0.00,,,0.00,346,weatherlink.com 1.10,2013-05-22 13:39:00,
2013-05-22 08:54:00,54.0,47.0,29.89,NW,320,0.0,13.0,76,0.00,,,0.00,387,weatherlink.com 1.10,2013-05-22 13:54:00,
2013-05-22 09:09:00,55.1,47.0,29.90,North,9,2.0,7.0,75,0.00,,,0.00,439,weatherlink.com 1.10,2013-05-22 14:09:00,
2013-05-22 09:24:00,55.8,47.0,29.90,NW,311,0.0,11.0,72,0.00,,,0.00,492,weatherlink.com 1.10,2013-05-22 14:24:00,
2013-05-22 09:39:00,56.6,47.0,29.89,WNW,292,0.0,9.0,71,0.00,,,0.00,555,weatherlink.com 1.10,2013-05-22 14:39:00,
2013-05-22 09:54:00,58.0,47.0,29.89,NNW,336,0.0,8.0,68,0.00,,,0.00,626,weatherlink.com 1.10,2013-05-22 14:54:00,
2013-05-22 10:09:00,57.5,47.0,29.90,West,273,11.0,11.0,69,0.00,,,0.00,715,weatherlink.com 1.10,2013-05-22 15:09:00,
2013-05-22 10:24:00,59.6,48.0,29.89,NE,42,0.0,12.0,65,0.00,,,0.00,680,weatherlink.com 1.10,2013-05-22 15:24:00,
2013-05-22 10:39:00,60.2,47.0,29.89,NE,34,0.0,9.0,63,0.00,,,0.00,805,weatherlink.com 1.10,2013-05-22 15:39:00,
2013-05-22 10:54:00,60.2,48.0,29.89,NW,326,0.0,12.0,64,0.00,,,0.00,802,weatherlink.com 1.10,2013-05-22 15:54:00,
2013-05-22 11:09:00,61.3,48.0,29.89,WNW,300,5.0,11.0,61,0.00,,,0.00,768,weatherlink.com 1.10,2013-05-22 16:09:00,
2013-05-22 11:24:00,61.0,48.0,29.89,WNW,284,7.0,14.0,62,0.00,,,0.00,796,weatherlink.com 1.10,2013-05-22 16:24:00,
2013-05-22 11:39:00,62.3,48.0,29.89,West,267,1.0,14.0,59,0.00,,,0.00,819,weatherlink.com 1.10,2013-05-22 16:39:00,
2013-05-22 11:54:00,63.9,48.0,29.89,West,267,3.0,9.0,56,0.00,,,0.00,846,weatherlink.com 1.10,2013-05-22 16:54:00,
2013-05-22 12:09:00,64.5,48.0,29.88,NNW,339,1.0,11.0,55,0.00,,,0.00,867,weatherlink.com 1.10,2013-05-22 17:09:00,
2013-05-22 12:24:00,65.5,47.0,29.88,NW,304,0.0,9.0,51,0.00,,,0.00,889,weatherlink.com 1.10,2013-05-22 17:24:00,
2013-05-22 12:39:00,65.0,47.0,29.88,West,281,2.0,13.0,53,0.00,,,0.00,905,weatherlink.com 1.10,2013-05-22 17:39:00,
2013-05-22 12:54:00,65.9,47.0,29.87,WNW,294,1.0,12.0,50,0.00,,,0.00,918,weatherlink.com 1.10,2013-05-22 17:54:00,
2013-05-22 13:09:00,66.3,46.0,29.87,NW,304,3.0,11.0,49,0.00,,,0.00,930,weatherlink.com 1.10,2013-05-22 18:09:00,
2013-05-22 13:25:00,67.0,48.0,29.87,NW,323,0.0,12.0,50,0.00,,,0.00,935,weatherlink.com 1.10,2013-05-22 18:25:00,
2013-05-22 13:40:00,67.2,47.0,29.86,West,279,8.0,11.0,49,0.00,,,0.00,939,weatherlink.com 1.10,2013-05-22 18:40:00,
2013-05-22 13:55:00,68.9,47.0,29.86,NW,322,6.0,13.0,46,0.00,,,0.00,939,weatherlink.com 1.10,2013-05-22 18:55:00,
2013-05-22 14:10:00,69.8,48.0,29.86,WSW,256,0.0,9.0,46,0.00,,,0.00,933,weatherlink.com 1.10,2013-05-22 19:10:00,
2013-05-22 14:25:00,70.3,48.0,29.86,NW,318,0.0,9.0,46,0.00,,,0.00,926,weatherlink.com 1.10,2013-05-22 19:25:00,
2013-05-22 14:40:00,70.8,46.0,29.86,WNW,288,5.0,12.0,41,0.00,,,0.00,914,weatherlink.com 1.10,2013-05-22 19:40:00,
2013-05-22 14:55:00,70.1,46.0,29.86,WNW,301,0.0,13.0,43,0.00,,,0.00,900,weatherlink.com 1.10,2013-05-22 19:55:00,
2013-05-22 15:10:00,71.2,46.0,29.86,WNW,296,7.0,9.0,41,0.00,,,0.00,879,weatherlink.com 1.10,2013-05-22 20:10:00,
2013-05-22 15:25:00,72.0,46.0,29.86,WNW,297,2.0,12.0,40,0.00,,,0.00,863,weatherlink.com 1.10,2013-05-22 20:25:00,
2013-05-22 15:40:00,71.5,47.0,29.85,NW,304,4.0,15.0,42,0.00,,,0.00,844,weatherlink.com 1.10,2013-05-22 20:40:00,
2013-05-22 15:55:00,72.3,47.0,29.85,NNW,330,0.0,9.0,40,0.00,,,0.00,844,weatherlink.com 1.10,2013-05-22 20:55:00,
2013-05-22 16:10:00,73.1,47.0,29.85,NW,313,1.0,14.0,40,0.00,,,0.00,788,weatherlink.com 1.10,2013-05-22 21:10:00,
2013-05-22 16:25:00,73.9,48.0,29.85,NNW,347,2.0,12.0,40,0.00,,,0.00,742,weatherlink.com 1.10,2013-05-22 21:25:00,
2013-05-22 16:40:00,74.0,47.0,29.85,West,267,4.0,14.0,38,0.00,,,0.00,708,weatherlink.com 1.10,2013-05-22 21:40:00,
2013-05-22 16:55:00,72.3,46.0,29.85,WNW,296,11.0,12.0,39,0.00,,,0.00,673,weatherlink.com 1.10,2013-05-22 21:55:00,
2013-05-22 17:10:00,73.4,48.0,29.84,West,271,0.0,12.0,40,0.00,,,0.00,635,weatherlink.com 1.10,2013-05-22 22:10:00,
2013-05-22 17:25:00,73.7,48.0,29.84,NNW,342,0.0,6.0,40,0.00,,,0.00,596,weatherlink.com 1.10,2013-05-22 22:25:00,
2013-05-22 17:40:00,74.1,48.0,29.85,NW,317,2.0,9.0,39,0.00,,,0.00,552,weatherlink.com 1.10,2013-05-22 22:40:00,
2013-05-22 17:55:00,73.9,48.0,29.85,WNW,292,1.0,10.0,40,0.00,,,0.00,501,weatherlink.com 1.10,2013-05-22 22:55:00,
2013-05-22 18:10:00,73.3,47.0,29.85,NW,304,0.0,9.0,40,0.00,,,0.00,455,weatherlink.com 1.10,2013-05-22 23:10:00,
2013-05-22 18:25:00,72.7,48.0,29.85,NNW,335,1.0,12.0,41,0.00,,,0.00,411,weatherlink.com 1.10,2013-05-22 23:25:00,
2013-05-22 18:40:00,73.5,48.0,29.85,North,360,0.0,5.0,41,0.00,,,0.00,362,weatherlink.com 1.10,2013-05-22 23:40:00,
2013-05-22 18:55:00,73.3,49.0,29.85,NNW,333,0.0,6.0,42,0.00,,,0.00,318,weatherlink.com 1.10,2013-05-22 23:55:00,
2013-05-22 19:10:00,72.6,47.0,29.85,NE,36,6.0,8.0,41,0.00,,,0.00,271,weatherlink.com 1.10,2013-05-23 00:10:00,
2013-05-22 19:25:00,72.2,48.0,29.85,NNW,342,0.0,9.0,42,0.00,,,0.00,213,weatherlink.com 1.10,2013-05-23 00:25:00,
2013-05-22 19:40:00,71.4,48.0,29.85,NNE,13,0.0,5.0,43,0.00,,,0.00,160,weatherlink.com 1.10,2013-05-23 00:40:00,
2013-05-22 19:55:00,70.4,48.0,29.86,NNE,17,0.0,3.0,45,0.00,,,0.00,107,weatherlink.com 1.10,2013-05-23 00:55:00,
2013-05-22 20:10:00,69.2,48.0,29.86,NE,35,0.0,4.0,47,0.00,,,0.00,67,weatherlink.com 1.10,2013-05-23 01:10:00,
2013-05-22 20:25:00,67.9,47.0,29.86,NE,36,6.0,7.0,48,0.00,,,0.00,30,weatherlink.com 1.10,2013-05-23 01:25:00,
2013-05-22 20:40:00,66.1,47.0,29.87,NE,49,2.0,6.0,50,0.00,,,0.00,14,weatherlink.com 1.10,2013-05-23 01:40:00,
2013-05-22 20:55:00,65.1,47.0,29.87,NE,48,0.0,12.0,53,0.00,,,0.00,5,weatherlink.com 1.10,2013-05-23 01:55:00,
2013-05-22 21:10:00,63.6,48.0,29.88,ENE,59,0.0,4.0,57,0.00,,,0.00,0,weatherlink.com 1.10,2013-05-23 02:10:00,
2013-05-22 21:25:00,62.3,48.0,29.89,ENE,72,7.0,9.0,60,0.00,,,0.00,0,weatherlink.com 1.10,2013-05-23 02:25:00,
2013-05-22 21:40:00,61.2,48.0,29.91,ENE,57,2.0,8.0,63,0.00,,,0.00,0,weatherlink.com 1.10,2013-05-23 02:40:00,
2013-05-22 21:55:00,60.1,48.0,29.92,NE,37,2.0,6.0,65,0.00,,,0.00,0,weatherlink.com 1.10,2013-05-23 02:55:00,
2013-05-22 22:10:00,59.0,48.0,29.93,ENE,57,3.0,7.0,67,0.00,,,0.00,0,weatherlink.com 1.10,2013-05-23 03:10:00,
2013-05-22 22:25:00,58.7,48.0,29.94,NE,50,3.0,10.0,68,0.00,,,0.00,0,weatherlink.com 1.10,2013-05-23 03:25:00,
2013-05-22 22:40:00,57.8,48.0,29.95,ENE,60,5.0,9.0,70,0.00,,,0.00,0,weatherlink.com 1.10,2013-05-23 03:40:00,
2013-05-22 22:55:00,57.0,48.0,29.96,NE,48,2.0,9.0,71,0.00,,,0.00,0,weatherlink.com 1.10,2013-05-23 03:55:00,
2013-05-22 23:10:00,56.0,47.0,29.97,NE,53,2.0,11.0,73,0.00,,,0.00,0,weatherlink.com 1.10,2013-05-23 04:10:00,